User: anonymous   Login
Location: Pian di Sc�
(43.6333°N, 11.5500°E)
Time: 18:53:37
(UTC+00:00)
Language:

Cosmos 1544 Rocket - Orbit

View from above orbital plane
View from above orbital plane
View from above satellite
View from above satellite

Ground track
Ground track

The orbit data is extracted from the following two-line orbital elements,

1 14820U 84027B   20304.46054137  .00000090  00000-0  79977-5 0  9998
2 14820  82.5404 275.0874 0017723 321.7393  38.2564 14.83673489978523
Epoch (UTC): 30 October 2020 11:03:10
Eccentricity: 0.0017723
inclination: 82.5404°
perigee height: 605 km
apogee height: 630 km
right ascension of ascending node: 275.0874°
argument of perigee: 321.7393°
revolutions per day: 14.83673489
mean anomaly at epoch: 38.2564°
orbit number at epoch: 97852

The dashed part of the orbit path shows where the satellite is in the earth's shadow,  

DLR